contact:dominique.lefevre@mio.osupytheas.fr, maurice.libes@osupytheas.fr, didier.mallarino@osupytheas.fr
Project:EMSO http://www.emso-fr.org/EMSO-France
Depth: 2436.0 m
Title:EMSO Ligure Ouest : Data MII capteur MICROCAT
DateTime_Computer,Latitude,Longitude,Temperature,Conductivity,Pressure,DateTime_Instrument
DateTime_Computer,Latitude,Longitude,degC,S m-1,dbar,DateTime_Instrument
2023-05-05T00:01:50Z,42.805,6.029,13.3045,4.60089,2470.6,2023-5-05T02:04:58Z
2023-05-05T00:04:53Z,42.805,6.029,13.3043,4.60092,2470.6,2023-5-05T02:08:01Z
2023-05-05T00:07:56Z,42.805,6.029,13.3041,4.60092,2470.614,2023-5-05T02:11:04Z
2023-05-05T00:10:59Z,42.805,6.029,13.3041,4.60089,2470.624,2023-5-05T02:14:07Z
2023-05-05T00:14:02Z,42.805,6.029,13.3041,4.60091,2470.614,2023-5-05T02:17:10Z
2023-05-05T00:17:06Z,42.805,6.029,13.3041,4.60089,2470.624,2023-5-05T02:20:13Z
2023-05-05T00:20:09Z,42.805,6.029,13.3039,4.60087,2470.637,2023-5-05T02:23:16Z
2023-05-05T00:23:12Z,42.805,6.029,13.3041,4.60103,2470.637,2023-5-05T02:26:19Z
2023-05-05T00:26:15Z,42.805,6.029,13.3039,4.60090,2470.624,2023-5-05T02:29:22Z
2023-05-05T00:29:18Z,42.805,6.029,13.3039,4.60093,2470.614,2023-5-05T02:32:26Z
2023-05-05T00:32:21Z,42.805,6.029,13.3047,4.60089,2470.6,2023-5-05T02:35:29Z
2023-05-05T00:35:24Z,42.805,6.029,13.3050,4.60085,2470.624,2023-5-05T02:38:32Z
2023-05-05T00:38:27Z,42.805,6.029,13.3045,4.60092,2470.614,2023-5-05T02:41:35Z
2023-05-05T00:41:30Z,42.805,6.029,13.3039,4.60092,2470.6,2023-5-05T02:44:38Z
2023-05-05T00:44:33Z,42.805,6.029,13.3046,4.60096,2470.6,2023-5-05T02:47:41Z
2023-05-05T00:47:36Z,42.805,6.029,13.3043,4.60092,2470.577,2023-5-05T02:50:44Z
2023-05-05T00:50:39Z,42.805,6.029,13.3041,4.60084,2470.6,2023-5-05T02:53:47Z
2023-05-05T00:53:42Z,42.805,6.029,13.3042,4.60087,2470.614,2023-5-05T02:56:50Z
2023-05-05T00:56:46Z,42.805,6.029,13.3041,4.60087,2470.624,2023-5-05T02:59:53Z
2023-05-05T00:59:49Z,42.805,6.029,13.3037,4.60090,2470.591,2023-5-05T03:02:56Z
2023-05-05T01:02:52Z,42.805,6.029,13.3054,4.60092,2470.6,2023-5-05T03:05:59Z
2023-05-05T01:05:55Z,42.805,6.029,13.3041,4.60094,2470.577,2023-5-05T03:09:02Z
2023-05-05T01:08:58Z,42.805,6.029,13.3042,4.60088,2470.563,2023-5-05T03:12:06Z
2023-05-05T01:12:01Z,42.805,6.029,13.3047,4.60094,2470.577,2023-5-05T03:15:09Z
2023-05-05T01:15:04Z,42.805,6.029,13.3046,4.60091,2470.577,2023-5-05T03:18:12Z
2023-05-05T01:18:07Z,42.805,6.029,13.3042,4.60097,2470.614,2023-5-05T03:21:15Z
2023-05-05T01:21:10Z,42.805,6.029,13.3046,4.60092,2470.6,2023-5-05T03:24:18Z
2023-05-05T01:24:13Z,42.805,6.029,13.3046,4.60098,2470.577,2023-5-05T03:27:21Z
2023-05-05T01:27:16Z,42.805,6.029,13.3055,4.60102,2470.591,2023-5-05T03:30:24Z
2023-05-05T01:30:19Z,42.805,6.029,13.3077,4.60097,2470.614,2023-5-05T03:33:27Z
2023-05-05T01:33:22Z,42.805,6.029,13.3048,4.60095,2470.614,2023-5-05T03:36:30Z
2023-05-05T01:36:26Z,42.805,6.029,13.3048,4.60090,2470.614,2023-5-05T03:39:33Z
2023-05-05T01:39:29Z,42.805,6.029,13.3056,4.60096,2470.6,2023-5-05T03:42:36Z
2023-05-05T01:42:32Z,42.805,6.029,13.3046,4.60096,2470.6,2023-5-05T03:45:39Z
2023-05-05T01:45:35Z,42.805,6.029,13.3044,4.60095,2470.614,2023-5-05T03:48:42Z
2023-05-05T01:48:38Z,42.805,6.029,13.3048,4.60092,2470.614,2023-5-05T03:51:46Z
2023-05-05T01:51:41Z,42.805,6.029,13.3036,4.60103,2470.6,2023-5-05T03:54:49Z
2023-05-05T01:54:44Z,42.805,6.029,13.3048,4.60097,2470.614,2023-5-05T03:57:52Z
2023-05-05T01:57:47Z,42.805,6.029,13.3043,4.60095,2470.577,2023-5-05T04:00:55Z
2023-05-05T02:00:50Z,42.805,6.029,13.3039,4.60133,2470.614,2023-5-05T04:03:58Z
2023-05-05T02:03:53Z,42.805,6.029,13.3051,4.60109,2470.6,2023-5-05T04:07:01Z
2023-05-05T02:06:56Z,42.805,6.029,13.3063,4.60097,2470.624,2023-5-05T04:10:04Z
2023-05-05T02:09:59Z,42.805,6.029,13.3041,4.60114,2470.6,2023-5-05T04:13:07Z
2023-05-05T02:13:02Z,42.805,6.029,13.3061,4.60112,2470.6,2023-5-05T04:16:10Z
2023-05-05T02:16:05Z,42.805,6.029,13.3041,4.60112,2470.6,2023-5-05T04:19:13Z
2023-05-05T02:19:09Z,42.805,6.029,13.3082,4.60122,2470.624,2023-5-05T04:22:16Z
2023-05-05T02:22:12Z,42.805,6.029,13.3027,4.60109,2470.6,2023-5-05T04:25:19Z
2023-05-05T02:25:15Z,42.805,6.029,13.3024,4.60102,2470.614,2023-5-05T04:28:22Z
2023-05-05T02:28:18Z,42.805,6.029,13.3021,4.60110,2470.614,2023-5-05T04:31:25Z
2023-05-05T02:31:21Z,42.805,6.029,13.3025,4.60099,2470.614,2023-5-05T04:34:29Z
2023-05-05T02:34:24Z,42.805,6.029,13.3028,4.60103,2470.6,2023-5-05T04:37:32Z
2023-05-05T02:37:27Z,42.805,6.029,13.3022,4.60098,2470.624,2023-5-05T04:40:35Z
2023-05-05T02:40:30Z,42.805,6.029,13.3019,4.60098,2470.624,2023-5-05T04:43:38Z
2023-05-05T02:43:33Z,42.805,6.029,13.3020,4.60087,2470.637,2023-5-05T04:46:41Z
2023-05-05T02:46:36Z,42.805,6.029,13.3023,4.60094,2470.614,2023-5-05T04:49:44Z
2023-05-05T02:49:39Z,42.805,6.029,13.3016,4.60090,2470.6,2023-5-05T04:52:47Z
2023-05-05T02:52:42Z,42.805,6.029,13.3015,4.60080,2470.577,2023-5-05T04:55:50Z
2023-05-05T02:55:45Z,42.805,6.029,13.3019,4.60075,2470.6,2023-5-05T04:58:53Z
2023-05-05T02:58:48Z,42.805,6.029,13.3019,4.60081,2470.637,2023-5-05T05:01:56Z
2023-05-05T03:01:52Z,42.805,6.029,13.3018,4.60082,2470.6,2023-5-05T05:04:59Z
2023-05-05T03:04:55Z,42.805,6.029,13.3018,4.60079,2470.624,2023-5-05T05:08:02Z
2023-05-05T03:07:58Z,42.805,6.029,13.3016,4.60075,2470.646,2023-5-05T05:11:05Z
2023-05-05T03:11:01Z,42.805,6.029,13.3019,4.60079,2470.6,2023-5-05T05:14:09Z
2023-05-05T03:14:04Z,42.805,6.029,13.3023,4.60078,2470.6,2023-5-05T05:17:12Z
2023-05-05T03:17:07Z,42.805,6.029,13.3021,4.60078,2470.614,2023-5-05T05:20:15Z
2023-05-05T03:20:10Z,42.805,6.029,13.3021,4.60079,2470.6,2023-5-05T05:23:18Z
2023-05-05T03:23:13Z,42.805,6.029,13.3019,4.60077,2470.637,2023-5-05T05:26:21Z
2023-05-05T03:26:16Z,42.805,6.029,13.3021,4.60079,2470.6,2023-5-05T05:29:24Z
2023-05-05T03:29:19Z,42.805,6.029,13.3020,4.60078,2470.637,2023-5-05T05:32:27Z
2023-05-05T03:32:22Z,42.805,6.029,13.3019,4.60077,2470.646,2023-5-05T05:35:30Z
2023-05-05T03:35:25Z,42.805,6.029,13.3019,4.60076,2470.624,2023-5-05T05:38:33Z
2023-05-05T03:38:28Z,42.805,6.029,13.3023,4.60079,2470.624,2023-5-05T05:41:36Z
2023-05-05T03:41:32Z,42.805,6.029,13.3019,4.60077,2470.646,2023-5-05T05:44:39Z
2023-05-05T03:44:35Z,42.805,6.029,13.3022,4.60076,2470.661,2023-5-05T05:47:42Z
2023-05-05T03:47:38Z,42.805,6.029,13.3022,4.60075,2470.637,2023-5-05T05:50:45Z
2023-05-05T03:50:41Z,42.805,6.029,13.3022,4.60077,2470.646,2023-5-05T05:53:49Z
2023-05-05T03:53:44Z,42.805,6.029,13.3021,4.60077,2470.661,2023-5-05T05:56:52Z
2023-05-05T03:56:47Z,42.805,6.029,13.3023,4.60076,2470.646,2023-5-05T05:59:55Z
2023-05-05T03:59:50Z,42.805,6.029,13.3020,4.60076,2470.67,2023-5-05T06:02:58Z
2023-05-05T04:02:53Z,42.805,6.029,13.3021,4.60076,2470.67,2023-5-05T06:06:01Z
2023-05-05T04:05:56Z,42.805,6.029,13.3024,4.60077,2470.646,2023-5-05T06:09:04Z
2023-05-05T04:08:59Z,42.805,6.029,13.3017,4.60074,2470.684,2023-5-05T06:12:07Z
2023-05-05T04:12:02Z,42.805,6.029,13.3019,4.60075,2470.646,2023-5-05T06:15:10Z
2023-05-05T04:15:05Z,42.805,6.029,13.3016,4.60076,2470.646,2023-5-05T06:18:13Z
2023-05-05T04:18:08Z,42.805,6.029,13.3016,4.60078,2470.67,2023-5-05T06:21:16Z
2023-05-05T04:21:12Z,42.805,6.029,13.3018,4.60075,2470.684,2023-5-05T06:24:19Z
2023-05-05T04:24:15Z,42.805,6.029,13.3019,4.60076,2470.684,2023-5-05T06:27:22Z
2023-05-05T04:27:18Z,42.805,6.029,13.3021,4.60078,2470.67,2023-5-05T06:30:25Z
2023-05-05T04:30:21Z,42.805,6.029,13.3020,4.60076,2470.67,2023-5-05T06:33:29Z
2023-05-05T04:33:24Z,42.805,6.029,13.3019,4.60077,2470.707,2023-5-05T06:36:32Z
2023-05-05T04:36:27Z,42.805,6.029,13.3024,4.60075,2470.67,2023-5-05T06:39:35Z
2023-05-05T04:39:30Z,42.805,6.029,13.3018,4.60077,2470.684,2023-5-05T06:42:38Z
2023-05-05T04:42:33Z,42.805,6.029,13.3018,4.60074,2470.67,2023-5-05T06:45:41Z
2023-05-05T04:45:36Z,42.805,6.029,13.3018,4.60081,2470.67,2023-5-05T06:48:44Z
2023-05-05T04:48:39Z,42.805,6.029,13.3019,4.60078,2470.693,2023-5-05T06:51:47Z
2023-05-05T04:51:42Z,42.805,6.029,13.3021,4.60077,2470.707,2023-5-05T06:54:50Z
2023-05-05T04:54:45Z,42.805,6.029,13.3019,4.60079,2470.717,2023-5-05T06:57:53Z
2023-05-05T04:57:48Z,42.805,6.029,13.3021,4.60076,2470.707,2023-5-05T07:00:56Z
2023-05-05T05:00:51Z,42.805,6.029,13.3021,4.60078,2470.74,2023-5-05T07:03:59Z
2023-05-05T05:03:55Z,42.805,6.029,13.3015,4.60080,2470.67,2023-5-05T07:07:02Z
2023-05-05T05:06:58Z,42.805,6.029,13.3019,4.60078,2470.717,2023-5-05T07:10:05Z
2023-05-05T05:10:01Z,42.805,6.029,13.3019,4.60077,2470.717,2023-5-05T07:13:08Z
2023-05-05T05:13:04Z,42.805,6.029,13.3020,4.60077,2470.693,2023-5-05T07:16:12Z
2023-05-05T05:16:07Z,42.805,6.029,13.3021,4.60078,2470.73,2023-5-05T07:19:15Z
2023-05-05T05:19:10Z,42.805,6.029,13.3018,4.60079,2470.74,2023-5-05T07:22:18Z
2023-05-05T05:22:13Z,42.805,6.029,13.3023,4.60075,2470.74,2023-5-05T07:25:21Z
2023-05-05T05:25:16Z,42.805,6.029,13.3017,4.60076,2470.73,2023-5-05T07:28:24Z
2023-05-05T05:28:19Z,42.805,6.029,13.3016,4.60077,2470.73,2023-5-05T07:31:27Z
2023-05-05T05:31:22Z,42.805,6.029,13.3017,4.60076,2470.717,2023-5-05T07:34:30Z
2023-05-05T05:34:25Z,42.805,6.029,13.3019,4.60074,2470.74,2023-5-05T07:37:33Z
2023-05-05T05:37:28Z,42.805,6.029,13.3021,4.60076,2470.74,2023-5-05T07:40:36Z
2023-05-05T05:40:31Z,42.805,6.029,13.3020,4.60074,2470.754,2023-5-05T07:43:39Z
2023-05-05T05:43:35Z,42.805,6.029,13.3022,4.60075,2470.717,2023-5-05T07:46:42Z
2023-05-05T05:46:38Z,42.805,6.029,13.3016,4.60075,2470.74,2023-5-05T07:49:45Z
2023-05-05T05:49:41Z,42.805,6.029,13.3021,4.60074,2470.74,2023-5-05T07:52:48Z
2023-05-05T05:52:44Z,42.805,6.029,13.3021,4.60074,2470.754,2023-5-05T07:55:52Z
2023-05-05T05:55:47Z,42.805,6.029,13.3019,4.60077,2470.754,2023-5-05T07:58:55Z
2023-05-05T05:58:50Z,42.805,6.029,13.3019,4.60075,2470.74,2023-5-05T08:01:58Z
2023-05-05T06:01:53Z,42.805,6.029,13.3016,4.60074,2470.777,2023-5-05T08:05:01Z
2023-05-05T06:04:56Z,42.805,6.029,13.3019,4.60075,2470.717,2023-5-05T08:08:04Z
2023-05-05T06:07:59Z,42.805,6.029,13.3019,4.60073,2470.74,2023-5-05T08:11:07Z
2023-05-05T06:11:02Z,42.805,6.029,13.3023,4.60077,2470.754,2023-5-05T08:14:10Z
2023-05-05T06:14:05Z,42.805,6.029,13.3021,4.60076,2470.777,2023-5-05T08:17:13Z
2023-05-05T06:17:08Z,42.805,6.029,13.3019,4.60075,2470.74,2023-5-05T08:20:16Z
2023-05-05T06:20:11Z,42.805,6.029,13.3021,4.60074,2470.74,2023-5-05T08:23:19Z
2023-05-05T06:23:14Z,42.805,6.029,13.3019,4.60075,2470.763,2023-5-05T08:26:22Z
2023-05-05T06:26:18Z,42.805,6.029,13.3019,4.60076,2470.763,2023-5-05T08:29:25Z
2023-05-05T06:29:21Z,42.805,6.029,13.3020,4.60074,2470.763,2023-5-05T08:32:28Z
2023-05-05T06:32:24Z,42.805,6.029,13.3019,4.60078,2470.763,2023-5-05T08:35:32Z
2023-05-05T06:35:27Z,42.805,6.029,13.3019,4.60074,2470.787,2023-5-05T08:38:35Z
2023-05-05T06:38:30Z,42.805,6.029,13.3020,4.60075,2470.763,2023-5-05T08:41:38Z
2023-05-05T06:41:33Z,42.805,6.029,13.3021,4.60075,2470.726,2023-5-05T08:44:41Z
2023-05-05T06:44:36Z,42.805,6.029,13.3016,4.60074,2470.74,2023-5-05T08:47:44Z
2023-05-05T06:47:39Z,42.805,6.029,13.3015,4.60073,2470.787,2023-5-05T08:50:47Z
2023-05-05T06:50:42Z,42.805,6.029,13.3019,4.60074,2470.763,2023-5-05T08:53:50Z
2023-05-05T06:53:45Z,42.805,6.029,13.3019,4.60073,2470.74,2023-5-05T08:56:53Z
2023-05-05T06:56:48Z,42.805,6.029,13.3020,4.60074,2470.787,2023-5-05T08:59:56Z
2023-05-05T06:59:51Z,42.805,6.029,13.3020,4.60073,2470.754,2023-5-05T09:02:59Z
2023-05-05T07:02:54Z,42.805,6.029,13.3019,4.60073,2470.763,2023-5-05T09:06:02Z
2023-05-05T07:05:58Z,42.805,6.029,13.3019,4.60075,2470.74,2023-5-05T09:09:05Z
2023-05-05T07:09:01Z,42.805,6.029,13.3019,4.60074,2470.763,2023-5-05T09:12:08Z
2023-05-05T07:12:04Z,42.805,6.029,13.3015,4.60075,2470.74,2023-5-05T09:15:12Z
2023-05-05T07:15:07Z,42.805,6.029,13.3021,4.60074,2470.777,2023-5-05T09:18:15Z
2023-05-05T07:18:10Z,42.805,6.029,13.3017,4.60077,2470.717,2023-5-05T09:21:18Z
2023-05-05T07:21:13Z,42.805,6.029,13.3019,4.60074,2470.763,2023-5-05T09:24:21Z
2023-05-05T07:24:16Z,42.805,6.029,13.3020,4.60075,2470.74,2023-5-05T09:27:24Z
2023-05-05T07:27:19Z,42.805,6.029,13.3021,4.60074,2470.717,2023-5-05T09:30:27Z
2023-05-05T07:30:22Z,42.805,6.029,13.3021,4.60074,2470.763,2023-5-05T09:33:30Z
2023-05-05T07:33:25Z,42.805,6.029,13.3022,4.60072,2470.726,2023-5-05T09:36:33Z
2023-05-05T07:36:28Z,42.805,6.029,13.3016,4.60079,2470.74,2023-5-05T09:39:36Z
2023-05-05T07:39:31Z,42.805,6.029,13.3019,4.60077,2470.74,2023-5-05T09:42:39Z
2023-05-05T07:42:34Z,42.805,6.029,13.3018,4.60074,2470.74,2023-5-05T09:45:42Z
2023-05-05T07:45:38Z,42.805,6.029,13.3021,4.60074,2470.74,2023-5-05T09:48:45Z
2023-05-05T07:48:41Z,42.805,6.029,13.3019,4.60075,2470.74,2023-5-05T09:51:48Z
2023-05-05T07:51:44Z,42.805,6.029,13.3019,4.60074,2470.717,2023-5-05T09:54:51Z
2023-05-05T07:54:47Z,42.805,6.029,13.3016,4.60074,2470.717,2023-5-05T09:57:55Z
2023-05-05T07:57:50Z,42.805,6.029,13.3015,4.60074,2470.73,2023-5-05T10:00:58Z
2023-05-05T08:00:53Z,42.805,6.029,13.3019,4.60072,2470.74,2023-5-05T10:04:01Z
2023-05-05T08:03:56Z,42.805,6.029,13.3019,4.60075,2470.74,2023-5-05T10:07:04Z
2023-05-05T08:06:59Z,42.805,6.029,13.3019,4.60074,2470.717,2023-5-05T10:10:07Z
2023-05-05T08:10:02Z,42.805,6.029,13.3020,4.60074,2470.763,2023-5-05T10:13:10Z
2023-05-05T08:13:05Z,42.805,6.029,13.3021,4.60074,2470.74,2023-5-05T10:16:13Z
2023-05-05T08:16:08Z,42.805,6.029,13.3018,4.60075,2470.73,2023-5-05T10:19:16Z
2023-05-05T08:19:11Z,42.805,6.029,13.3021,4.60076,2470.707,2023-5-05T10:22:19Z
2023-05-05T08:22:14Z,42.805,6.029,13.3021,4.60074,2470.693,2023-5-05T10:25:22Z
2023-05-05T08:25:18Z,42.805,6.029,13.3019,4.60075,2470.73,2023-5-05T10:28:25Z
2023-05-05T08:28:21Z,42.805,6.029,13.3015,4.60074,2470.717,2023-5-05T10:31:28Z
2023-05-05T08:31:23Z,42.805,6.029,13.3021,4.60073,2470.693,2023-5-05T10:34:31Z
2023-05-05T08:34:26Z,42.805,6.029,13.3017,4.60074,2470.707,2023-5-05T10:37:34Z
2023-05-05T08:37:29Z,42.805,6.029,13.3015,4.60072,2470.717,2023-5-05T10:40:37Z
2023-05-05T08:40:32Z,42.805,6.029,13.3013,4.60073,2470.707,2023-5-05T10:43:40Z
2023-05-05T08:43:35Z,42.805,6.029,13.3018,4.60073,2470.717,2023-5-05T10:46:43Z
2023-05-05T08:46:38Z,42.805,6.029,13.3018,4.60075,2470.707,2023-5-05T10:49:46Z
2023-05-05T08:49:41Z,42.805,6.029,13.3019,4.60074,2470.74,2023-5-05T10:52:49Z
2023-05-05T08:52:44Z,42.805,6.029,13.3017,4.60074,2470.67,2023-5-05T10:55:52Z
2023-05-05T08:55:47Z,42.805,6.029,13.3020,4.60074,2470.693,2023-5-05T10:58:55Z
2023-05-05T08:58:50Z,42.805,6.029,13.3016,4.60074,2470.67,2023-5-05T11:01:58Z
2023-05-05T09:01:53Z,42.805,6.029,13.3018,4.60078,2470.679,2023-5-05T11:05:01Z
2023-05-05T09:04:57Z,42.805,6.029,13.3019,4.60076,2470.707,2023-5-05T11:08:04Z
2023-05-05T09:08:00Z,42.805,6.029,13.3020,4.60076,2470.693,2023-5-05T11:11:07Z
2023-05-05T09:11:03Z,42.805,6.029,13.3016,4.60075,2470.67,2023-5-05T11:14:11Z
2023-05-05T09:14:06Z,42.805,6.029,13.3019,4.60077,2470.707,2023-5-05T11:17:14Z
2023-05-05T09:17:09Z,42.805,6.029,13.3018,4.60074,2470.67,2023-5-05T11:20:17Z
2023-05-05T09:20:12Z,42.805,6.029,13.3018,4.60077,2470.67,2023-5-05T11:23:20Z
2023-05-05T09:23:15Z,42.805,6.029,13.3018,4.60081,2470.693,2023-5-05T11:26:23Z
2023-05-05T09:26:18Z,42.805,6.029,13.3021,4.60075,2470.67,2023-5-05T11:29:26Z
2023-05-05T09:29:21Z,42.805,6.029,13.3015,4.60079,2470.67,2023-5-05T11:32:29Z
2023-05-05T09:32:24Z,42.805,6.029,13.3020,4.60076,2470.693,2023-5-05T11:35:32Z
2023-05-05T09:35:27Z,42.805,6.029,13.3019,4.60077,2470.67,2023-5-05T11:38:35Z
2023-05-05T09:38:30Z,42.805,6.029,13.3016,4.60075,2470.646,2023-5-05T11:41:38Z
2023-05-05T09:41:34Z,42.805,6.029,13.3019,4.60079,2470.646,2023-5-05T11:44:41Z
2023-05-05T09:44:37Z,42.805,6.029,13.3016,4.60081,2470.646,2023-5-05T11:47:44Z
2023-05-05T09:47:40Z,42.805,6.029,13.3014,4.60078,2470.684,2023-5-05T11:50:48Z
2023-05-05T09:50:43Z,42.805,6.029,13.3018,4.60078,2470.646,2023-5-05T11:53:51Z
2023-05-05T09:53:46Z,42.805,6.029,13.3020,4.60081,2470.646,2023-5-05T11:56:54Z
2023-05-05T09:56:49Z,42.805,6.029,13.3013,4.60079,2470.684,2023-5-05T11:59:57Z
2023-05-05T09:59:52Z,42.805,6.029,13.3019,4.60079,2470.661,2023-5-05T12:03:00Z
2023-05-05T10:02:55Z,42.805,6.029,13.3019,4.60081,2470.661,2023-5-05T12:06:03Z
2023-05-05T10:05:58Z,42.805,6.029,13.3018,4.60075,2470.624,2023-5-05T12:09:06Z
2023-05-05T10:09:01Z,42.805,6.029,13.3019,4.60077,2470.646,2023-5-05T12:12:09Z
2023-05-05T10:12:04Z,42.805,6.029,13.3021,4.60081,2470.646,2023-5-05T12:15:12Z
2023-05-05T10:15:07Z,42.805,6.029,13.3019,4.60079,2470.624,2023-5-05T12:18:15Z
2023-05-05T10:18:10Z,42.805,6.029,13.3020,4.60079,2470.624,2023-5-05T12:21:18Z
2023-05-05T10:21:14Z,42.805,6.029,13.3018,4.60082,2470.637,2023-5-05T12:24:21Z
2023-05-05T10:24:17Z,42.805,6.029,13.3021,4.60079,2470.624,2023-5-05T12:27:25Z
2023-05-05T10:27:20Z,42.805,6.029,13.3017,4.60081,2470.646,2023-5-05T12:30:28Z
2023-05-05T10:30:23Z,42.805,6.029,13.3017,4.60081,2470.614,2023-5-05T12:33:31Z
2023-05-05T10:33:26Z,42.805,6.029,13.3023,4.60078,2470.624,2023-5-05T12:36:34Z
2023-05-05T10:36:29Z,42.805,6.029,13.3019,4.60082,2470.624,2023-5-05T12:39:37Z
2023-05-05T10:39:32Z,42.805,6.029,13.3019,4.60090,2470.624,2023-5-05T12:42:40Z
2023-05-05T10:42:35Z,42.805,6.029,13.3019,4.60081,2470.6,2023-5-05T12:45:43Z
2023-05-05T10:45:38Z,42.805,6.029,13.3017,4.60082,2470.577,2023-5-05T12:48:46Z
2023-05-05T10:48:41Z,42.805,6.029,13.3019,4.60087,2470.637,2023-5-05T12:51:49Z
2023-05-05T10:51:44Z,42.805,6.029,13.3021,4.60087,2470.614,2023-5-05T12:54:52Z
2023-05-05T10:54:47Z,42.805,6.029,13.3017,4.60086,2470.577,2023-5-05T12:57:55Z
2023-05-05T10:57:50Z,42.805,6.029,13.3019,4.60089,2470.577,2023-5-05T13:00:58Z
2023-05-05T11:00:54Z,42.805,6.029,13.3020,4.60083,2470.614,2023-5-05T13:04:01Z
2023-05-05T11:03:57Z,42.805,6.029,13.3021,4.60079,2470.614,2023-5-05T13:07:05Z
2023-05-05T11:07:00Z,42.805,6.029,13.3018,4.60077,2470.6,2023-5-05T13:10:08Z
2023-05-05T11:10:03Z,42.805,6.029,13.3016,4.60078,2470.577,2023-5-05T13:13:11Z
2023-05-05T11:13:06Z,42.805,6.029,13.3021,4.60074,2470.6,2023-5-05T13:16:14Z
2023-05-05T11:16:09Z,42.805,6.029,13.3018,4.60078,2470.591,2023-5-05T13:19:17Z
2023-05-05T11:19:12Z,42.805,6.029,13.3015,4.60080,2470.577,2023-5-05T13:22:20Z
2023-05-05T11:22:15Z,42.805,6.029,13.3018,4.60084,2470.6,2023-5-05T13:25:23Z
2023-05-05T11:25:18Z,42.805,6.029,13.3018,4.60085,2470.563,2023-5-05T13:28:26Z
2023-05-05T11:28:21Z,42.805,6.029,13.3013,4.60082,2470.553,2023-5-05T13:31:29Z
2023-05-05T11:31:24Z,42.805,6.029,13.3016,4.60085,2470.591,2023-5-05T13:34:32Z
2023-05-05T11:34:27Z,42.805,6.029,13.3018,4.60089,2470.624,2023-5-05T13:37:35Z
2023-05-05T11:37:30Z,42.805,6.029,13.3019,4.60086,2470.577,2023-5-05T13:40:38Z
2023-05-05T11:40:34Z,42.805,6.029,13.3021,4.60088,2470.577,2023-5-05T13:43:41Z
2023-05-05T11:43:37Z,42.805,6.029,13.3019,4.60092,2470.577,2023-5-05T13:46:45Z
2023-05-05T11:46:40Z,42.805,6.029,13.3021,4.60092,2470.577,2023-5-05T13:49:48Z
2023-05-05T11:49:43Z,42.805,6.029,13.3022,4.60096,2470.553,2023-5-05T13:52:51Z
2023-05-05T11:52:46Z,42.805,6.029,13.3016,4.60094,2470.577,2023-5-05T13:55:54Z
2023-05-05T11:55:49Z,42.805,6.029,13.3021,4.60093,2470.591,2023-5-05T13:58:57Z
2023-05-05T11:58:52Z,42.805,6.029,13.3017,4.60083,2470.591,2023-5-05T14:02:00Z
2023-05-05T12:01:55Z,42.805,6.029,13.3022,4.60087,2470.53,2023-5-05T14:05:03Z
2023-05-05T12:04:58Z,42.805,6.029,13.3019,4.60084,2470.553,2023-5-05T14:08:06Z
2023-05-05T12:08:01Z,42.805,6.029,13.3024,4.60110,2470.553,2023-5-05T14:11:09Z
2023-05-05T12:11:04Z,42.805,6.029,13.3019,4.60104,2470.591,2023-5-05T14:14:12Z
2023-05-05T12:14:07Z,42.805,6.029,13.3018,4.60097,2470.591,2023-5-05T14:17:15Z
2023-05-05T12:17:11Z,42.805,6.029,13.3019,4.60099,2470.553,2023-5-05T14:20:18Z
2023-05-05T12:20:14Z,42.805,6.029,13.3016,4.60092,2470.53,2023-5-05T14:23:22Z
2023-05-05T12:23:17Z,42.805,6.029,13.3019,4.60087,2470.544,2023-5-05T14:26:25Z
2023-05-05T12:26:20Z,42.805,6.029,13.3021,4.60091,2470.53,2023-5-05T14:29:28Z
2023-05-05T12:29:23Z,42.805,6.029,13.3015,4.60089,2470.553,2023-5-05T14:32:31Z
2023-05-05T12:32:26Z,42.805,6.029,13.3016,4.60097,2470.553,2023-5-05T14:35:34Z
2023-05-05T12:35:29Z,42.805,6.029,13.3018,4.60082,2470.577,2023-5-05T14:38:37Z
2023-05-05T12:38:32Z,42.805,6.029,13.3018,4.60079,2470.553,2023-5-05T14:41:40Z
2023-05-05T12:41:35Z,42.805,6.029,13.3023,4.60089,2470.544,2023-5-05T14:44:43Z
2023-05-05T12:44:38Z,42.805,6.029,13.3020,4.60088,2470.553,2023-5-05T14:47:46Z
2023-05-05T12:47:41Z,42.805,6.029,13.3020,4.60111,2470.544,2023-5-05T14:50:49Z
2023-05-05T12:50:44Z,42.805,6.029,13.3016,4.60082,2470.553,2023-5-05T14:53:52Z
2023-05-05T12:53:47Z,42.805,6.029,13.3019,4.60091,2470.53,2023-5-05T14:56:55Z
2023-05-05T12:56:51Z,42.805,6.029,13.3018,4.60084,2470.53,2023-5-05T14:59:59Z
2023-05-05T12:59:54Z,42.805,6.029,13.3021,4.60086,2470.553,2023-5-05T15:03:02Z
2023-05-05T13:02:57Z,42.805,6.029,13.3019,4.60090,2470.567,2023-5-05T15:06:05Z
2023-05-05T13:06:00Z,42.805,6.029,13.3015,4.60087,2470.53,2023-5-05T15:09:08Z
2023-05-05T13:09:03Z,42.805,6.029,13.3019,4.60079,2470.567,2023-5-05T15:12:11Z
2023-05-05T13:12:06Z,42.805,6.029,13.3015,4.60079,2470.53,2023-5-05T15:15:14Z
2023-05-05T13:15:09Z,42.805,6.029,13.3017,4.60079,2470.53,2023-5-05T15:18:17Z
2023-05-05T13:18:12Z,42.805,6.029,13.3017,4.60084,2470.53,2023-5-05T15:21:20Z
2023-05-05T13:21:15Z,42.805,6.029,13.3020,4.60079,2470.53,2023-5-05T15:24:23Z
2023-05-05T13:24:18Z,42.805,6.029,13.3021,4.60077,2470.567,2023-5-05T15:27:26Z
2023-05-05T13:27:21Z,42.805,6.029,13.3026,4.60091,2470.507,2023-5-05T15:30:29Z
2023-05-05T13:30:24Z,42.805,6.029,13.3018,4.60089,2470.53,2023-5-05T15:33:32Z
2023-05-05T13:33:28Z,42.805,6.029,13.3018,4.60082,2470.553,2023-5-05T15:36:35Z
2023-05-05T13:36:31Z,42.805,6.029,13.3016,4.60079,2470.53,2023-5-05T15:39:39Z
2023-05-05T13:39:34Z,42.805,6.029,13.3015,4.60077,2470.567,2023-5-05T15:42:42Z
2023-05-05T13:42:37Z,42.805,6.029,13.3015,4.60077,2470.553,2023-5-05T15:45:45Z
2023-05-05T13:45:40Z,42.805,6.029,13.3015,4.60079,2470.544,2023-5-05T15:48:48Z
2023-05-05T13:48:43Z,42.805,6.029,13.3018,4.60076,2470.53,2023-5-05T15:51:51Z
2023-05-05T13:51:46Z,42.805,6.029,13.3017,4.60074,2470.553,2023-5-05T15:54:54Z
2023-05-05T13:54:49Z,42.805,6.029,13.3018,4.60074,2470.544,2023-5-05T15:57:57Z
2023-05-05T13:57:52Z,42.805,6.029,13.3015,4.60074,2470.52,2023-5-05T16:01:00Z
2023-05-05T14:00:55Z,42.805,6.029,13.3015,4.60077,2470.53,2023-5-05T16:04:03Z
2023-05-05T14:03:58Z,42.805,6.029,13.3017,4.60073,2470.53,2023-5-05T16:07:06Z
2023-05-05T14:07:01Z,42.805,6.029,13.3015,4.60072,2470.53,2023-5-05T16:10:09Z
2023-05-05T14:10:04Z,42.805,6.029,13.3018,4.60073,2470.553,2023-5-05T16:13:12Z
2023-05-05T14:13:08Z,42.805,6.029,13.3016,4.60071,2470.53,2023-5-05T16:16:16Z
2023-05-05T14:16:11Z,42.805,6.029,13.3013,4.60070,2470.507,2023-5-05T16:19:19Z
2023-05-05T14:19:14Z,42.805,6.029,13.3014,4.60071,2470.53,2023-5-05T16:22:22Z
2023-05-05T14:22:17Z,42.805,6.029,13.3018,4.60072,2470.53,2023-5-05T16:25:25Z
2023-05-05T14:25:20Z,42.805,6.029,13.3012,4.60077,2470.53,2023-5-05T16:28:28Z
2023-05-05T14:28:23Z,42.805,6.029,13.3019,4.60073,2470.53,2023-5-05T16:31:31Z
2023-05-05T14:31:26Z,42.805,6.029,13.3017,4.60081,2470.53,2023-5-05T16:34:34Z
2023-05-05T14:34:29Z,42.805,6.029,13.3017,4.60072,2470.507,2023-5-05T16:37:37Z
2023-05-05T14:37:32Z,42.805,6.029,13.3017,4.60073,2470.567,2023-5-05T16:40:40Z
2023-05-05T14:40:35Z,42.805,6.029,13.3019,4.60072,2470.553,2023-5-05T16:43:43Z
2023-05-05T14:43:39Z,42.805,6.029,13.3015,4.60073,2470.53,2023-5-05T16:46:47Z
2023-05-05T14:46:42Z,42.805,6.029,13.3011,4.60074,2470.53,2023-5-05T16:49:50Z
2023-05-05T14:49:45Z,42.805,6.029,13.3014,4.60071,2470.53,2023-5-05T16:52:53Z
2023-05-05T14:52:48Z,42.805,6.029,13.3015,4.60074,2470.567,2023-5-05T16:55:56Z
2023-05-05T14:55:51Z,42.805,6.029,13.3017,4.60073,2470.553,2023-5-05T16:58:59Z
2023-05-05T14:58:54Z,42.805,6.029,13.3019,4.60072,2470.591,2023-5-05T17:02:02Z
2023-05-05T15:01:57Z,42.805,6.029,13.3015,4.60074,2470.553,2023-5-05T17:05:05Z
2023-05-05T15:05:00Z,42.805,6.029,13.3015,4.60074,2470.577,2023-5-05T17:08:08Z
2023-05-05T15:08:03Z,42.805,6.029,13.3015,4.60074,2470.553,2023-5-05T17:11:11Z
2023-05-05T15:11:06Z,42.805,6.029,13.3012,4.60071,2470.577,2023-5-05T17:14:14Z
2023-05-05T15:14:09Z,42.805,6.029,13.3018,4.60072,2470.544,2023-5-05T17:17:17Z